This is the latest recevied weather packets stored in our database for station/object G6FCI. If no packets are shown the sender has not sent any weather packets the latest 10 day(s).
| Time | Temp. | Humidity | Pressure | Rain* | Wind** | Luminosity | Snow |
|---|---|---|---|---|---|---|---|
| 1777403883 | 11.11° C | 84% | 1029.1 hPa | 0 mm | - | - | - |
| 1777399743 | 12.78° C | 84% | 1028.7 hPa | 0 mm | - | - | - |
| 1777399203 | 13.33° C | 84% | 1028.5 hPa | 0 mm | - | - | - |
| 1777395603 | 15° C | 83% | 1028.4 hPa | 0 mm | - | - | - |
| 1777393623 | 15.56° C | 81% | 1028.3 hPa | 0 mm | - | - | - |
| 1777390563 | 16.67° C | 80% | 1028.6 hPa | 0 mm | - | - | - |
| 1777385883 | 17.22° C | 82% | 1029 hPa | 0 mm | - | - | - |
| 1777385343 | 15.56° C | 82% | 1029.2 hPa | 0 mm | - | - | - |
| 1777384443 | 15° C | 81% | 1029.2 hPa | 0 mm | - | - | - |
| 1777383384 | 15.56° C | 76% | 1029.4 hPa | 0 mm | - | - | - |
| 1777382823 | 15.56° C | 76% | 1029.4 hPa | 0 mm | - | - | - |
| 1777379223 | 13.89° C | 76% | 1029.4 hPa | 0 mm | - | - | - |
| 1777377603 | 15.56° C | 77% | 1029.6 hPa | 0 mm | - | - | - |
| 1777376703 | 15.56° C | 76% | 1029.6 hPa | 0 mm | - | - | - |
| 1777375623 | 15° C | 75% | 1029.5 hPa | 0 mm | - | - | - |
| 1777370943 | 14.44° C | 72% | 1029.5 hPa | 0 mm | - | - | - |
| 1777368423 | 12.22° C | 70% | 1029.7 hPa | 0 mm | - | - | - |
| 1777367343 | 11.11° C | 70% | 1029.6 hPa | 0 mm | - | - | - |
| 1777362303 | 10.56° C | 68% | 1029.7 hPa | 0 mm | - | - | - |
| 1777360164 | 10° C | 66% | 1029.3 hPa | 0 mm | - | - | - |
| 1777358724 | 10° C | 67% | 1029.3 hPa | 0 mm | - | - | - |
| 1777357083 | 9.44° C | 68% | 1028.9 hPa | 0 mm | - | - | - |
| 1777356543 | 9.44° C | 68% | 1028.8 hPa | 0 mm | - | - | - |
| 1777353504 | 9.44° C | 66% | 1028.5 hPa | 0 mm | - | - | - |
| 1777349343 | 10° C | 69% | 1028.5 hPa | 0 mm | - | - | - |
* Rain latest hour (hover to see other rain measurements)
** Current wind speed in m/s (hover to see current wind gust speed)